QPF
0.00 0.00 0.00 0.00 0.00 0.00 0.01 0.00 0.00 0.00 0.00 0.00 0.00 0.00 0.00 0.00 0.00 0.01 0.00 0.00 0.00 0.00 0.00 0.00 0.00 0.03 0.02 0.03 0.16 0.20 0.24 0.23 0.21 0.11 0.04 0.02 0.00 0.00 0.00 0.01 0.02 0.02 0.01 0.00 0.00 0.00 0.00 0.01 0.03
0.00 0.00 0.00 0.00 0.00 0.00 0.02 0.00 0.00 0.00 0.00 0.00 0.00 0.00 0.00 0.00 0.00 0.00 0.00 0.00 0.00 0.00 0.00 0.00 0.00 0.00 0.00 0.01 0.09 0.17 0.23 0.21 0.13 0.07 0.03 0.01 0.00 0.01 0.00 0.00 0.00 0.00 0.00 0.00 0.00 0.00 0.00 0.00 0.00
0.00 0.00 0.00 0.00 0.00 0.02 0.01 0.00 0.00 0.00 0.00 0.00 0.00 0.00 0.00 0.00 0.00 0.00 0.00 0.00 0.00 0.01 0.01 0.00 0.00 0.01 0.00 0.00 0.04 0.04 0.05 0.04 0.07 0.08 0.06 0.04 0.00 0.00 0.00 0.00 0.00 0.00 0.00 0.01 0.00 0.01 0.01 0.01 0.01
0.00 0.00 0.00 0.02 0.05 0.04 0.00 0.00 0.00 0.00 0.00 0.00 0.00 0.00 0.00 0.00 0.00 0.00 0.00 0.00 0.00 0.00 0.00 0.00 0.02 0.06 0.02 0.05 0.01 0.00 0.00 0.01 0.13 0.15 0.09 0.05 0.01 0.02 0.01 0.01 0.02 0.01 0.01 0.04 0.04 0.04 0.01 0.00 0.00
0.00 0.00 0.02 0.09 0.06 0.01 0.00 0.00 0.00 0.00 0.00 0.00 0.00 0.00 0.00 0.00 0.00 0.00 0.00 0.00 0.00 0.00 0.00 0.01 0.09 0.05 0.11 0.10 0.02 0.01 0.02 0.05 0.19 0.21 0.15 0.11 0.13 0.07 0.06 0.12 0.06 0.02 0.03 0.03 0.03 0.06 0.01 0.00 0.00
0.00 0.00 0.06 0.08 0.08 0.00 0.00 0.00 0.00 0.00 0.00 0.00 0.00 0.00 0.00 0.00 0.00 0.00 0.00 0.00 0.00 0.00 0.00 0.00 0.02 0.05 0.03 0.04 0.09 0.08 0.11 0.14 0.19 0.17 0.11 0.21 0.21 0.15 0.13 0.07 0.01 0.01 0.01 0.02 0.03 0.03 0.00 0.00 0.00
0.00 0.02 0.06 0.07 0.09 0.05 0.00 0.00 0.00 0.00 0.00 0.00 0.00 0.00 0.00 0.00 0.00 0.00 0.00 0.00 0.00 0.00 0.00 0.00 0.00 0.02 0.05 0.12 0.11 0.16 0.19 0.21 0.19 0.12 0.12 0.06 0.10 0.04 0.04 0.02 0.00 0.00 0.01 0.02 0.01 0.00 0.00 0.00 0.00
0.00 0.01 0.05 0.09 0.10 0.10 0.01 0.00 0.00 0.00 0.00 0.00 0.00 0.00 0.00 0.00 0.00 0.00 0.00 0.00 0.00 0.00 0.00 0.00 0.00 0.02 0.05 0.09 0.13 0.19 0.18 0.15 0.15 0.18 0.09 0.11 0.06 0.00 0.01 0.00 0.00 0.00 0.00 0.00 0.00 0.00 0.00 0.00 0.00
0.00 0.00 0.01 0.02 0.03 0.01 0.00 0.00 0.00 0.00 0.00 0.00 0.00 0.00 0.00 0.00 0.00 0.00 0.00 0.00 0.00 0.00 0.00 0.00 0.00 0.01 0.05 0.08 0.11 0.13 0.18 0.14 0.13 0.21 0.21 0.06 0.00 0.00 0.00 0.00 0.00 0.00 0.00 0.00 0.00 0.00 0.00 0.00 0.00
0.00 0.04 0.00 0.00 0.00 0.00 0.00 0.00 0.00 0.00 0.00 0.00 0.00 0.00 0.00 0.00 0.00 0.00 0.00 0.00 0.00 0.00 0.00 0.00 0.00 0.00 0.00 0.00 0.06 0.09 0.13 0.08 0.12 0.16 0.04 0.00 0.00 0.00 0.00 0.00 0.00 0.00 0.00 0.00 0.00 0.00 0.00 0.00 0.00
0.00 0.01 0.00 0.00 0.00 0.00 0.00 0.00 0.00 0.01 0.04 0.00 0.00 0.00 0.00 0.00 0.00 0.00 0.00 0.00 0.00 0.00 0.00 0.00 0.00 0.00 0.00 0.00 0.00 0.03 0.03 0.02 0.02 0.00 0.00 0.00 0.00 0.00 0.00 0.00 0.00 0.00 0.00 0.00 0.00 0.00 0.00 0.00 0.00
0.00 0.00 0.00 0.00 0.00 0.00 0.00 0.00 0.00 0.01 0.02 0.00 0.00 0.00 0.00 0.00 0.00 0.00 0.00 0.00 0.00 0.00 0.00 0.00 0.00 0.00 0.00 0.00 0.00 0.00 0.00 0.00 0.00 0.00 0.00 0.00 0.00 0.00 0.00 0.00 0.00 0.00 0.00 0.00 0.00 0.00 0.00 0.00 0.00
0.00 0.00 0.00 0.00 0.00 0.00 0.02 0.03 0.01 0.00 0.00 0.00 0.00 0.00 0.00 0.00 0.00 0.00 0.00 0.00 0.00 0.00 0.00 0.00 0.00 0.00 0.01 0.00 0.00 0.00 0.00 0.00 0.00 0.00 0.00 0.00 0.00 0.00 0.00 0.00 0.00 0.00 0.00 0.00 0.00 0.00 0.00 0.00 0.00
0.00 0.00 0.00 0.00 0.00 0.02 0.07 0.01 0.07 0.03 0.00 0.00 0.00 0.00 0.00 0.00 0.00 0.00 0.00 0.00 0.00 0.00 0.00 0.00 0.00 0.00 0.00 0.00 0.00 0.00 0.00 0.00 0.00 0.00 0.00 0.00 0.00 0.00 0.00 0.00 0.00 0.00 0.00 0.00 0.00 0.00 0.00 0.00 0.00
0.00 0.00 0.01 0.00 0.00 0.00 0.01 0.02 0.06 0.02 0.00 0.00 0.00 0.00 0.00 0.00 0.00 0.00 0.00 0.00 0.00 0.00 0.00 0.00 0.00 0.00 0.00 0.00 0.00 0.00 0.00 0.00 0.00 0.00 0.00 0.00 0.00 0.00 0.00 0.00 0.00 0.00 0.00 0.00 0.00 0.00 0.00 0.00 0.00
0.00 0.01 0.12 0.09 0.00 0.00 0.02 0.07 0.02 0.01 0.00 0.00 0.00 0.00 0.00 0.00 0.00 0.00 0.00 0.00 0.00 0.00 0.00 0.00 0.00 0.00 0.00 0.00 0.02 0.06 0.00 0.00 0.00 0.00 0.00 0.00 0.00 0.00 0.00 0.00 0.00 0.00 0.00 0.00 0.00 0.00 0.00 0.00 0.00
0.01 0.04 0.03 0.07 0.00 0.00 0.01 0.09 0.01 0.00 0.00 0.00 0.00 0.00 0.00 0.00 0.00 0.00 0.00 0.00 0.00 0.00 0.00 0.00 0.00 0.00 0.00 0.00 0.01 0.02 0.00 0.00 0.00 0.00 0.00 0.00 0.00 0.00 0.00 0.00 0.00 0.00 0.00 0.00 0.00 0.00 0.00 0.00 0.00
0.00 0.00 0.00 0.01 0.00 0.02 0.06 0.08 0.01 0.00 0.02 0.01 0.00 0.00 0.00 0.00 0.00 0.00 0.00 0.00 0.00 0.00 0.00 0.00 0.00 0.00 0.00 0.00 0.00 0.00 0.00 0.00 0.00 0.00 0.00 0.00 0.00 0.00 0.00 0.00 0.00 0.00 0.00 0.00 0.00 0.00 0.00 0.00 0.00
0.00 0.00 0.00 0.00 0.00 0.03 0.03 0.01 0.00 0.00 0.00 0.00 0.00 0.00 0.00 0.00 0.00 0.00 0.00 0.00 0.00 0.00 0.00 0.00 0.00 0.00 0.00 0.00 0.00 0.00 0.00 0.00 0.00 0.00 0.00 0.00 0.00 0.00 0.00 0.00 0.00 0.00 0.00 0.00 0.00 0.00 0.00 0.00 0.00
0.00 0.00 0.00 0.00 0.00 0.03 0.01 0.01 0.00 0.00 0.00 0.00 0.00 0.00 0.00 0.00 0.00 0.00 0.00 0.00 0.00 0.00 0.00 0.00 0.00 0.00 0.00 0.00 0.00 0.00 0.00 0.00 0.00 0.00 0.00 0.00 0.00 0.00 0.00 0.00 0.00 0.00 0.00 0.00 0.00 0.00 0.01 0.00 0.00
0.00 0.00 0.00 0.00 0.00 0.00 0.01 0.01 0.00 0.00 0.00 0.00 0.00 0.00 0.00 0.00 0.00 0.00 0.00 0.00 0.00 0.00 0.00 0.00 0.00 0.00 0.00 0.00 0.00 0.00 0.00 0.00 0.00 0.00 0.00 0.00 0.00 0.00 0.00 0.00 0.00 0.00 0.00 0.00 0.00 0.00 0.00 0.00 0.00
0.00 0.00 0.00 0.00 0.00 0.00 0.01 0.02 0.00 0.00 0.00 0.00 0.00 0.00 0.00 0.00 0.00 0.01 0.00 0.00 0.00 0.00 0.00 0.00 0.00 0.00 0.00 0.00 0.00 0.00 0.03 0.01 0.00 0.00 0.00 0.00 0.00 0.00 0.00 0.00 0.00 0.00 0.00 0.00 0.00 0.00 0.00 0.00 0.00
0.00 0.00 0.00 0.00 0.00 0.00 0.00 0.00 0.00 0.00 0.00 0.00 0.00 0.00 0.00 0.00 0.00 0.00 0.00 0.00 0.00 0.00 0.00 0.00 0.00 0.00 0.00 0.00 0.00 0.00 0.00 0.00 0.00 0.00 0.00 0.00 0.00 0.00 0.00 0.00 0.00 0.00 0.00 0.00 0.00 0.00 0.00 0.00 0.00
0.00 0.00 0.00 0.00 0.00 0.00 0.00 0.00 0.00 0.00 0.00 0.00 0.00 0.00 0.00 0.00 0.00 0.00 0.00 0.00 0.00 0.00 0.00 0.00 0.00 0.00 0.00 0.00 0.00 0.00 0.01 0.07 0.01 0.01 0.00 0.00 0.00 0.00 0.00 0.00 0.00 0.00 0.00 0.00 0.00 0.00 0.00 0.00 0.00
0.00 0.00 0.00 0.00 0.00 0.00 0.00 0.00 0.00 0.00 0.00 0.00 0.00 0.00 0.00 0.00 0.00 0.00 0.00 0.00 0.00 0.00 0.00 0.00 0.00 0.00 0.00 0.00 0.00 0.00 0.01 0.04 0.13 0.11 0.01 0.00 0.00 0.00 0.00 0.00 0.00 0.00 0.00 0.00 0.00 0.00 0.00 0.00 0.00
0.00 0.00 0.00 0.00 0.00 0.00 0.00 0.00 0.00 0.00 0.00 0.00 0.00 0.00 0.00 0.00 0.00 0.00 0.00 0.00 0.00 0.00 0.00 0.00 0.00 0.00 0.00 0.00 0.00 0.00 0.00 0.00 0.01 0.01 0.01 0.00 0.00 0.00 0.00 0.00 0.00 0.00 0.00 0.00 0.00 0.00 0.00 0.00 0.01
0.00 0.00 0.00 0.00 0.00 0.00 0.00 0.00 0.00 0.00 0.00 0.00 0.00 0.00 0.00 0.00 0.00 0.00 0.00 0.00 0.00 0.00 0.00 0.00 0.00 0.00 0.00 0.00 0.00 0.00 0.00 0.00 0.00 0.00 0.01 0.00 0.00 0.00 0.00 0.00 0.00 0.00 0.00 0.00 0.00 0.00 0.00 0.01 0.01
0.00 0.00 0.00 0.00 0.00 0.00 0.00 0.00 0.00 0.00 0.00 0.00 0.00 0.00 0.00 0.00 0.00 0.00 0.00 0.00 0.00 0.00 0.00 0.00 0.00 0.00 0.00 0.00 0.00 0.00 0.00 0.00 0.00 0.00 0.01 0.00 0.00 0.00 0.00 0.00 0.00 0.00 0.05 0.05 0.03 0.00 0.00 0.00 0.00
0.00 0.00 0.00 0.00 0.00 0.00 0.00 0.00 0.00 0.00 0.00 0.00 0.00 0.00 0.00 0.00 0.00 0.00 0.00 0.00 0.00 0.00 0.00 0.00 0.00 0.00 0.00 0.00 0.00 0.00 0.00 0.00 0.00 0.00 0.00 0.00 0.02 0.05 0.08 0.06 0.03 0.01 0.04 0.04 0.04 0.02 0.02 0.04 0.02
0.00 0.00 0.00 0.00 0.00 0.00 0.00 0.00 0.00 0.00 0.00 0.00 0.00 0.00 0.00 0.00 0.00 0.00 0.00 0.00 0.00 0.00 0.00 0.00 0.00 0.00 0.00 0.00 0.00 0.00 0.00 0.00 0.00 0.00 0.00 0.00 0.01 0.08 0.04 0.05 0.07 0.04 0.05 0.11 0.07 0.05 0.01 0.04 0.02
MSLP
1010.70 1010.08 1009.85 1009.39 1008.12 1005.83 1006.11 1006.76 1006.69 1007.36 1007.67 1008.21 1008.77 1008.85 1009.39 1010.26 1010.27 1011.56 1012.86 1013.51 1013.66 1014.47 1015.71 1016.03 1016.27 1016.50 1016.54 1016.73 1016.81 1016.94 1016.98 1016.98 1017.07 1017.13 1017.06 1017.17 1017.29 1017.35 1017.42 1017.45 1017.52 1017.59 1017.73 1017.79 1017.82 1017.84 1018.01 1018.09 1018.27
1009.66 1009.83 1009.47 1008.11 1006.49 1005.05 1006.64 1006.69 1006.97 1007.50 1008.09 1008.58 1009.15 1009.36 1009.59 1010.82 1011.55 1012.49 1013.08 1013.63 1013.79 1014.11 1014.66 1015.45 1016.45 1016.59 1016.73 1016.98 1017.09 1017.34 1017.26 1017.16 1017.26 1017.35 1017.29 1017.35 1017.54 1017.54 1017.64 1017.62 1017.65 1017.81 1017.87 1017.93 1017.95 1018.12 1018.43 1018.57 1018.58
1009.89 1009.48 1008.20 1006.85 1005.94 1005.63 1006.61 1007.02 1007.58 1008.31 1008.68 1008.86 1009.48 1009.88 1010.39 1011.62 1012.25 1012.63 1013.37 1013.72 1013.97 1014.29 1014.76 1015.96 1016.59 1016.77 1016.98 1017.13 1017.21 1017.34 1017.36 1017.54 1017.51 1017.58 1017.55 1017.76 1017.69 1017.74 1017.88 1017.89 1017.81 1018.18 1018.22 1018.28 1018.26 1018.55 1018.89 1018.91 1018.78
1009.21 1008.73 1008.04 1006.77 1006.58 1007.18 1006.81 1007.26 1007.94 1008.35 1008.82 1009.25 1009.66 1010.48 1011.76 1012.13 1012.43 1013.04 1013.81 1013.90 1014.24 1014.41 1014.92 1016.45 1016.74 1016.94 1017.07 1017.17 1017.34 1017.45 1017.61 1017.77 1017.80 1017.88 1017.88 1017.92 1017.92 1018.00 1018.26 1018.17 1018.25 1018.51 1018.51 1018.66 1018.67 1018.89 1019.09 1019.14 1019.03
1009.02 1008.12 1006.87 1006.95 1007.28 1007.70 1007.53 1007.78 1007.91 1008.15 1008.84 1009.49 1009.73 1010.61 1011.79 1013.00 1013.12 1013.70 1013.98 1013.89 1014.04 1014.33 1015.22 1016.24 1017.05 1017.19 1017.15 1017.37 1017.53 1017.76 1017.85 1018.00 1018.08 1018.15 1018.17 1018.08 1018.26 1018.17 1018.45 1018.38 1018.48 1018.70 1018.93 1018.75 1019.11 1019.17 1019.17 1019.23 1019.23
1008.18 1007.61 1006.88 1006.85 1007.67 1008.35 1008.35 1008.55 1008.15 1008.52 1009.14 1009.72 1010.08 1010.90 1012.53 1013.31 1013.45 1013.79 1014.01 1014.10 1014.08 1014.54 1015.05 1016.60 1017.21 1017.33 1017.37 1017.62 1017.85 1017.97 1018.02 1018.38 1018.62 1018.48 1018.40 1018.48 1018.51 1018.41 1018.66 1018.53 1018.79 1019.01 1019.07 1019.18 1019.35 1019.40 1019.36 1019.32 1019.43
1007.70 1007.36 1007.27 1007.17 1008.14 1008.62 1008.94 1009.02 1008.55 1008.60 1009.00 1009.42 1010.19 1010.77 1012.89 1013.14 1013.60 1013.95 1014.19 1014.43 1014.41 1014.77 1015.12 1016.16 1017.02 1017.51 1017.69 1017.79 1018.14 1018.46 1018.68 1018.87 1018.88 1018.68 1018.69 1018.57 1018.57 1018.78 1018.81 1018.84 1019.05 1019.23 1019.29 1019.52 1019.57 1019.56 1019.53 1019.66 1019.64
1008.34 1007.78 1007.73 1008.05 1008.66 1009.36 1009.71 1009.54 1009.61 1008.71 1009.38 1009.97 1010.08 1010.47 1012.28 1013.02 1013.85 1014.14 1014.50 1014.94 1014.90 1014.80 1015.21 1015.47 1015.81 1016.51 1017.51 1018.04 1018.58 1018.84 1018.96 1019.17 1019.02 1018.79 1018.58 1018.71 1018.90 1018.88 1019.08 1019.13 1019.26 1019.50 1019.53 1019.69 1019.71 1019.72 1019.82 1019.76 1019.81
1008.26 1007.37 1007.67 1008.53 1009.22 1010.17 1010.28 1009.60 1009.53 1009.20 1009.51 1009.75 1010.49 1010.09 1011.66 1013.19 1013.80 1014.15 1014.54 1014.87 1015.34 1015.48 1015.55 1015.71 1015.89 1016.72 1017.67 1018.27 1018.72 1019.14 1019.28 1019.15 1019.11 1018.99 1018.86 1018.73 1018.15 1018.43 1018.68 1019.31 1019.57 1019.65 1019.74 1019.83 1019.87 1019.87 1019.84 1019.78 1019.82
1007.44 1007.57 1007.80 1008.75 1009.79 1010.61 1010.79 1009.94 1009.73 1009.31 1009.58 1010.24 1010.88 1011.35 1012.40 1013.29 1013.71 1013.84 1014.15 1014.36 1015.04 1015.58 1015.80 1016.49 1016.18 1016.55 1016.70 1016.82 1018.48 1018.88 1019.00 1019.14 1019.34 1019.44 1018.74 1018.54 1018.43 1018.48 1018.72 1019.40 1019.73 1019.74 1019.91 1019.89 1019.91 1019.88 1019.73 1019.42 1018.37
1007.62 1007.81 1008.60 1009.41 1010.23 1010.59 1010.96 1010.84 1010.40 1009.61 1009.52 1009.68 1010.54 1011.54 1012.44 1013.09 1013.40 1013.55 1013.85 1014.14 1014.64 1015.45 1016.05 1016.34 1016.78 1016.94 1016.93 1017.40 1017.23 1017.87 1018.72 1018.94 1018.91 1019.00 1018.75 1018.89 1018.71 1018.61 1018.56 1019.16 1019.16 1019.31 1019.68 1018.88 1019.18 1019.16 1018.44 1018.80 1018.44
1007.51 1008.59 1008.91 1009.71 1010.88 1011.12 1011.54 1011.61 1010.77 1010.29 1010.01 1009.89 1010.37 1011.40 1012.15 1012.68 1013.01 1013.31 1013.70 1014.30 1014.96 1015.60 1016.11 1016.66 1016.71 1017.27 1017.18 1017.35 1017.21 1017.57 1017.76 1018.05 1018.27 1018.77 1019.03 1018.90 1018.58 1018.70 1018.51 1018.52 1018.98 1018.99 1018.79 1019.09 1018.73 1018.28 1018.79 1018.66 1018.73
1007.61 1008.62 1009.31 1010.01 1010.90 1012.00 1012.23 1012.38 1011.22 1010.65 1010.39 1010.22 1010.57 1011.39 1011.88 1012.32 1012.86 1013.23 1013.75 1014.55 1015.09 1015.54 1016.03 1016.41 1016.97 1017.55 1017.64 1017.70 1017.52 1017.62 1017.92 1017.73 1018.30 1018.54 1019.00 1018.66 1018.45 1018.66 1018.53 1018.96 1018.69 1018.85 1018.79 1018.65 1018.67 1018.59 1018.48 1018.51 1018.34
1007.87 1008.59 1009.43 1010.12 1010.92 1012.15 1012.57 1012.50 1011.72 1010.65 1010.44 1010.51 1010.87 1011.30 1011.69 1012.17 1012.74 1013.31 1013.79 1014.37 1014.94 1015.36 1015.94 1016.47 1017.11 1017.48 1017.67 1017.71 1018.05 1017.97 1017.66 1017.93 1017.89 1018.28 1018.68 1019.03 1018.45 1018.77 1018.59 1018.59 1018.49 1018.60 1018.65 1018.61 1018.61 1018.64 1018.40 1018.18 1018.00
1007.97 1008.50 1009.15 1009.93 1010.77 1011.53 1012.01 1012.00 1011.46 1010.92 1010.63 1010.65 1010.86 1011.25 1011.65 1012.13 1012.68 1013.26 1013.79 1014.28 1014.78 1015.29 1015.88 1016.46 1017.00 1017.30 1017.85 1018.05 1018.17 1017.88 1017.84 1017.78 1017.97 1018.31 1018.87 1018.83 1018.69 1018.97 1018.86 1018.55 1018.44 1018.64 1019.00 1018.95 1018.89 1018.69 1018.41 1017.94 1017.90
1007.18 1007.65 1008.03 1009.63 1010.17 1011.31 1011.55 1011.04 1011.38 1011.80 1011.55 1010.75 1010.78 1011.20 1011.66 1012.03 1012.43 1013.00 1013.52 1013.93 1014.58 1015.06 1015.90 1016.47 1016.68 1017.15 1017.69 1017.85 1018.23 1018.23 1017.83 1017.93 1018.10 1018.28 1018.45 1018.82 1019.05 1019.07 1018.85 1018.48 1018.41 1018.95 1018.75 1018.61 1018.51 1018.51 1018.24 1018.21 1018.19
1006.63 1006.75 1007.34 1008.73 1009.51 1010.10 1010.80 1010.82 1011.39 1011.76 1011.69 1010.69 1010.72 1010.96 1011.43 1011.81 1012.25 1012.78 1013.34 1013.88 1014.45 1015.42 1016.00 1016.45 1016.82 1017.21 1017.57 1018.08 1017.95 1018.29 1018.28 1018.12 1018.17 1018.24 1018.36 1018.94 1019.02 1019.09 1018.86 1018.62 1018.84 1019.02 1018.67 1018.61 1018.42 1018.42 1018.64 1018.34 1018.30
1005.47 1005.89 1006.82 1007.28 1008.51 1009.22 1009.66 1010.36 1010.97 1011.46 1011.54 1011.02 1010.94 1010.58 1011.00 1011.36 1011.76 1012.43 1013.11 1013.66 1014.34 1015.66 1015.94 1016.48 1016.82 1017.27 1017.75 1017.88 1018.18 1017.97 1017.97 1018.06 1018.16 1018.11 1018.33 1018.87 1018.94 1019.14 1019.18 1018.92 1019.01 1019.00 1018.65 1018.60 1018.59 1019.00 1018.84 1018.53 1018.44
1005.96 1005.92 1006.28 1007.01 1007.81 1008.41 1008.66 1009.01 1009.96 1010.96 1011.02 1011.30 1010.83 1010.29 1010.55 1010.85 1011.12 1011.91 1012.74 1013.35 1014.07 1015.00 1015.60 1016.37 1016.83 1017.26 1017.64 1017.80 1017.75 1017.75 1017.71 1017.87 1018.04 1018.05 1018.69 1018.98 1018.98 1019.17 1019.37 1019.03 1019.16 1019.19 1019.07 1019.16 1019.15 1018.81 1019.05 1018.81 1018.89
1005.35 1005.53 1005.91 1006.87 1007.51 1007.95 1007.86 1008.05 1008.59 1009.49 1010.18 1010.42 1010.63 1010.71 1010.69 1010.67 1010.83 1011.51 1012.13 1012.80 1013.50 1014.36 1015.25 1016.03 1016.56 1017.22 1017.52 1017.55 1017.67 1017.64 1017.67 1017.58 1017.68 1017.98 1018.48 1018.80 1018.91 1019.10 1019.21 1019.50 1019.26 1019.37 1019.09 1019.32 1019.26 1019.22 1018.58 1018.62 1018.84
1005.02 1005.01 1005.55 1006.11 1006.88 1007.23 1007.15 1006.90 1007.53 1008.25 1008.93 1009.42 1009.65 1010.17 1010.42 1010.85 1011.03 1011.14 1011.88 1012.24 1012.93 1013.75 1014.77 1015.55 1016.28 1016.81 1017.22 1017.24 1017.70 1018.02 1018.08 1018.07 1018.02 1018.04 1018.22 1018.45 1018.75 1018.87 1019.23 1019.42 1019.56 1019.59 1019.45 1018.88 1019.26 1019.23 1019.16 1018.20 1018.88
1004.07 1004.50 1005.34 1006.02 1005.88 1005.09 1006.01 1005.60 1006.15 1006.89 1007.91 1008.52 1008.71 1009.05 1009.48 1010.33 1011.09 1011.78 1011.24 1011.96 1012.23 1013.08 1014.07 1015.08 1015.94 1016.50 1016.98 1017.25 1017.25 1017.52 1017.44 1017.28 1017.28 1017.56 1017.72 1018.00 1018.65 1018.73 1018.91 1019.22 1019.40 1019.59 1019.21 1019.29 1019.03 1019.07 1019.25 1019.22 1018.25
1004.31 1004.76 1005.03 1005.31 1005.04 1004.91 1005.00 1004.54 1005.28 1006.14 1006.34 1007.02 1007.67 1007.88 1008.42 1008.98 1009.84 1010.97 1011.15 1011.10 1011.70 1012.58 1013.37 1014.41 1015.43 1016.13 1016.42 1016.85 1017.03 1017.38 1017.41 1017.15 1017.07 1017.23 1017.59 1018.13 1018.41 1018.64 1018.62 1018.87 1019.11 1019.30 1019.15 1019.17 1019.24 1019.20 1019.25 1018.97 1018.73
1004.36 1004.76 1004.93 1004.96 1004.12 1003.82 1004.09 1004.02 1004.12 1004.73 1005.37 1006.09 1006.80 1007.32 1007.88 1008.37 1009.31 1010.05 1010.69 1011.14 1011.45 1012.04 1012.87 1013.65 1014.79 1015.63 1016.16 1016.56 1017.00 1017.18 1017.08 1017.19 1016.77 1017.04 1017.34 1017.66 1017.90 1018.17 1018.59 1018.57 1018.85 1019.00 1018.98 1019.18 1019.02 1019.16 1019.23 1019.25 1019.11
1004.28 1003.81 1003.37 1003.44 1003.05 1002.97 1004.08 1004.08 1003.43 1004.68 1005.44 1006.02 1006.71 1007.43 1008.07 1008.37 1008.67 1009.23 1009.70 1010.33 1010.76 1011.44 1012.23 1013.05 1014.18 1014.92 1015.48 1016.06 1016.41 1016.83 1017.17 1017.51 1017.33 1017.65 1017.29 1017.01 1017.20 1017.45 1017.83 1018.47 1018.67 1018.61 1018.90 1018.95 1019.06 1019.25 1019.20 1019.11 1018.97
1003.21 1002.60 1001.94 1002.32 1002.29 1002.43 1003.98 1003.66 1003.39 1004.55 1005.67 1006.40 1007.03 1007.65 1008.14 1008.32 1008.40 1008.76 1009.51 1009.96 1010.43 1010.94 1011.73 1012.37 1013.37 1014.17 1014.78 1015.28 1015.83 1016.35 1016.76 1016.86 1017.13 1017.12 1016.66 1016.84 1016.78 1016.98 1017.31 1018.04 1018.23 1018.38 1018.55 1018.73 1018.93 1019.00 1018.97 1018.83 1018.96
1002.57 1002.81 1002.09 1002.23 1002.41 1002.80 1002.58 1003.20 1003.80 1004.84 1005.55 1006.19 1006.83 1007.57 1007.84 1008.13 1008.22 1008.32 1008.83 1009.38 1010.08 1010.67 1011.16 1011.80 1012.61 1013.47 1013.99 1014.51 1015.19 1015.77 1016.23 1016.49 1016.35 1016.49 1016.86 1016.83 1016.86 1016.73 1017.26 1017.75 1018.04 1018.06 1018.29 1018.54 1018.58 1018.66 1018.80 1018.89 1018.97
1002.51 1002.21 1002.29 1002.26 1002.11 1002.03 1002.21 1003.03 1002.99 1003.92 1004.92 1005.81 1006.61 1007.18 1007.72 1008.27 1008.59 1008.51 1008.68 1009.04 1009.58 1010.64 1010.99 1011.43 1012.06 1012.70 1013.20 1013.82 1014.38 1014.94 1015.42 1015.97 1016.27 1016.52 1017.02 1016.72 1016.63 1017.00 1017.07 1017.48 1017.75 1017.93 1018.06 1018.43 1018.56 1018.34 1018.56 1018.81 1018.66
1002.53 1002.19 1002.35 1001.88 1001.97 1001.78 1001.90 1001.82 1002.45 1003.52 1004.54 1005.61 1006.51 1007.39 1007.91 1008.24 1008.53 1008.78 1008.96 1009.09 1009.41 1009.69 1010.83 1011.24 1011.79 1012.02 1012.60 1013.06 1013.61 1014.10 1014.65 1015.19 1015.75 1016.01 1016.36 1016.61 1016.83 1016.95 1017.44 1017.59 1017.59 1017.63 1017.81 1018.05 1018.41 1018.52 1018.32 1018.57 1018.69
1001.83 1001.37 1001.63 1001.56 1001.73 1002.27 1002.51 1002.34 1003.64 1004.36 1005.17 1005.96 1006.94 1007.71 1008.24 1008.57 1008.73 1008.88 1009.02 1009.33 1009.50 1009.49 1009.89 1011.08 1011.18 1011.50 1011.94 1012.29 1013.07 1013.65 1014.13 1014.60 1014.93 1015.39 1015.73 1016.19 1016.42 1016.60 1016.92 1017.19 1017.34 1017.63 1017.60 1017.84 1018.23 1018.25 1017.95 1018.10 1018.23
Thickness
5792 5797 5799 5790 5777 5794 5770 5768 5789 5772 5773 5784 5782 5775 5768 5764 5758 5739 5767 5765 5765 5759 5749 5749 5749 5748 5750 5750 5750 5750 5750 5752 5752 5753 5753 5754 5753 5754 5756 5757 5759 5760 5757 5757 5758 5757 5756 5757 5755
5801 5800 5796 5790 5782 5778 5758 5784 5774 5778 5781 5786 5779 5775 5769 5751 5765 5759 5760 5765 5764 5762 5758 5753 5747 5746 5748 5747 5747 5747 5748 5749 5750 5752 5753 5754 5752 5754 5754 5757 5760 5757 5757 5758 5759 5758 5755 5754 5754
5799 5802 5789 5788 5785 5770 5760 5780 5778 5778 5782 5779 5769 5777 5768 5751 5762 5761 5766 5765 5763 5761 5758 5749 5745 5744 5745 5746 5746 5746 5747 5747 5749 5750 5753 5752 5753 5754 5754 5757 5760 5756 5756 5757 5759 5757 5754 5753 5755
5797 5796 5794 5782 5768 5772 5780 5783 5783 5778 5780 5781 5775 5757 5762 5769 5763 5766 5764 5763 5761 5760 5756 5744 5743 5743 5743 5745 5745 5744 5745 5745 5746 5747 5750 5750 5751 5753 5752 5756 5757 5755 5756 5756 5759 5756 5754 5754 5756
5798 5792 5779 5771 5767 5775 5787 5788 5789 5778 5775 5771 5775 5757 5753 5759 5767 5764 5762 5763 5762 5761 5753 5745 5740 5741 5743 5742 5743 5742 5743 5744 5742 5743 5746 5749 5749 5751 5750 5752 5754 5753 5754 5759 5756 5756 5756 5756 5757
5784 5792 5768 5764 5766 5772 5782 5784 5787 5779 5776 5771 5767 5760 5749 5762 5760 5762 5763 5762 5761 5759 5755 5743 5739 5740 5741 5742 5740 5740 5740 5738 5737 5739 5744 5744 5745 5748 5748 5752 5751 5752 5756 5756 5755 5756 5757 5758 5757
5784 5776 5764 5775 5763 5765 5772 5785 5779 5778 5775 5771 5775 5756 5750 5757 5761 5763 5762 5761 5760 5757 5755 5747 5741 5740 5740 5740 5738 5736 5735 5733 5735 5740 5743 5745 5746 5747 5749 5751 5751 5753 5756 5755 5755 5758 5758 5757 5759
5784 5780 5762 5768 5757 5754 5771 5776 5777 5781 5769 5784 5783 5758 5745 5758 5760 5761 5760 5757 5758 5759 5756 5754 5752 5746 5740 5737 5732 5730 5732 5734 5738 5739 5745 5746 5745 5749 5748 5750 5752 5753 5755 5755 5756 5757 5758 5760 5760
5794 5776 5759 5757 5755 5747 5769 5771 5782 5791 5776 5780 5776 5780 5772 5766 5762 5757 5754 5754 5753 5754 5755 5753 5753 5747 5740 5735 5729 5729 5730 5734 5737 5737 5743 5746 5753 5753 5753 5751 5752 5754 5755 5755 5756 5758 5760 5763 5763
5785 5768 5769 5773 5759 5748 5759 5773 5774 5776 5773 5767 5765 5773 5769 5764 5759 5755 5753 5753 5751 5749 5752 5748 5752 5750 5749 5748 5734 5732 5731 5733 5735 5735 5742 5747 5752 5755 5754 5752 5752 5755 5755 5756 5757 5760 5764 5768 5775
5782 5767 5774 5770 5765 5766 5759 5763 5774 5772 5764 5774 5764 5763 5763 5762 5760 5758 5758 5757 5756 5753 5751 5751 5748 5747 5747 5745 5746 5742 5737 5735 5737 5739 5744 5745 5751 5755 5757 5754 5757 5759 5758 5763 5764 5767 5775 5773 5776
5774 5774 5777 5771 5764 5762 5754 5759 5763 5769 5770 5782 5780 5773 5766 5761 5761 5760 5759 5757 5753 5751 5750 5749 5749 5746 5747 5746 5748 5747 5747 5745 5745 5743 5744 5748 5754 5755 5758 5760 5760 5762 5764 5764 5769 5776 5774 5776 5776
5776 5773 5774 5773 5765 5748 5751 5741 5759 5764 5777 5783 5780 5772 5767 5765 5763 5764 5762 5758 5754 5751 5752 5751 5748 5745 5746 5746 5748 5748 5748 5751 5749 5748 5746 5751 5756 5757 5759 5758 5763 5764 5765 5769 5772 5775 5778 5778 5781
5782 5776 5770 5769 5760 5742 5738 5740 5754 5769 5779 5775 5773 5769 5770 5767 5764 5762 5761 5757 5756 5756 5753 5753 5748 5747 5747 5748 5746 5747 5752 5752 5754 5752 5750 5750 5758 5757 5759 5762 5766 5767 5767 5771 5774 5777 5780 5782 5784
5782 5765 5769 5766 5761 5750 5753 5743 5748 5768 5775 5770 5769 5769 5769 5767 5767 5761 5761 5758 5758 5756 5755 5752 5749 5748 5746 5747 5747 5750 5752 5753 5754 5754 5751 5754 5757 5756 5758 5763 5767 5767 5766 5770 5774 5778 5782 5786 5786
5775 5776 5758 5763 5766 5754 5753 5738 5755 5755 5756 5765 5768 5767 5766 5766 5767 5766 5765 5764 5761 5759 5753 5752 5752 5749 5746 5748 5747 5749 5753 5754 5754 5754 5756 5755 5755 5757 5760 5765 5768 5766 5770 5773 5777 5780 5784 5784 5785
5773 5755 5762 5757 5771 5764 5755 5741 5754 5758 5758 5766 5768 5768 5766 5766 5767 5767 5767 5764 5762 5756 5753 5750 5749 5747 5747 5745 5749 5748 5750 5754 5755 5756 5757 5755 5756 5757 5761 5765 5765 5767 5772 5775 5779 5781 5781 5782 5784
5762 5766 5767 5764 5769 5767 5758 5749 5754 5755 5757 5763 5764 5772 5768 5767 5767 5770 5769 5767 5763 5754 5755 5750 5748 5746 5745 5746 5746 5750 5753 5754 5756 5758 5758 5756 5757 5757 5760 5764 5765 5768 5773 5777 5779 5776 5780 5783 5783
5769 5769 5764 5770 5776 5767 5765 5765 5761 5752 5759 5753 5763 5772 5771 5770 5777 5775 5772 5770 5765 5758 5755 5750 5746 5745 5744 5745 5746 5749 5751 5755 5757 5758 5755 5755 5757 5757 5759 5763 5765 5767 5770 5772 5775 5779 5776 5778 5781
5773 5765 5764 5768 5774 5768 5769 5767 5774 5768 5761 5763 5760 5763 5764 5772 5776 5775 5773 5772 5768 5761 5756 5751 5749 5745 5745 5747 5748 5751 5753 5757 5759 5758 5756 5756 5758 5758 5760 5760 5764 5765 5770 5771 5774 5775 5779 5780 5781
5769 5765 5763 5761 5770 5774 5772 5768 5771 5777 5776 5774 5776 5772 5772 5767 5769 5773 5771 5773 5771 5765 5757 5753 5750 5748 5748 5751 5749 5748 5750 5752 5754 5757 5758 5759 5759 5760 5760 5760 5761 5763 5766 5774 5773 5775 5774 5779 5779
5765 5785 5772 5759 5762 5759 5782 5741 5772 5780 5771 5772 5777 5780 5778 5772 5768 5759 5774 5771 5774 5770 5765 5758 5753 5750 5749 5750 5752 5749 5750 5751 5758 5760 5762 5762 5759 5761 5762 5762 5762 5763 5767 5770 5774 5775 5775 5775 5779
5765 5778 5770 5768 5767 5770 5771 5771 5769 5779 5774 5778 5782 5787 5788 5787 5780 5768 5772 5779 5779 5775 5770 5763 5756 5752 5753 5752 5753 5750 5749 5756 5763 5764 5761 5759 5760 5761 5763 5764 5764 5764 5768 5770 5772 5773 5775 5779 5779
5781 5769 5767 5769 5779 5758 5770 5772 5767 5776 5780 5784 5789 5790 5790 5789 5784 5779 5777 5778 5777 5778 5773 5768 5759 5754 5752 5752 5751 5750 5752 5755 5761 5761 5759 5760 5762 5762 5762 5765 5765 5766 5769 5770 5773 5775 5776 5776 5778
5768 5764 5748 5744 5754 5755 5770 5763 5778 5782 5785 5785 5783 5783 5784 5787 5787 5784 5781 5778 5779 5776 5774 5770 5762 5757 5756 5753 5753 5752 5751 5751 5754 5753 5758 5762 5763 5765 5766 5764 5765 5768 5768 5770 5771 5772 5775 5777 5778
5765 5778 5766 5729 5744 5763 5764 5747 5772 5789 5785 5782 5781 5778 5778 5780 5786 5783 5779 5779 5778 5778 5776 5774 5766 5761 5760 5757 5754 5753 5753 5754 5755 5758 5764 5764 5766 5768 5767 5764 5766 5767 5768 5769 5770 5772 5775 5779 5778
5768 5753 5794 5766 5775 5754 5772 5772 5784 5779 5774 5776 5775 5772 5774 5777 5781 5784 5784 5783 5778 5776 5778 5776 5771 5765 5764 5761 5758 5755 5754 5754 5758 5762 5762 5763 5765 5769 5766 5764 5766 5767 5768 5768 5769 5772 5773 5775 5776
5774 5791 5758 5766 5731 5732 5759 5750 5757 5769 5768 5771 5768 5769 5771 5772 5772 5777 5781 5782 5781 5775 5776 5777 5775 5769 5767 5767 5764 5761 5758 5756 5756 5758 5756 5762 5765 5763 5765 5764 5765 5766 5767 5766 5767 5772 5773 5772 5775
5760 5760 5764 5774 5766 5746 5743 5763 5790 5779 5776 5769 5768 5766 5766 5768 5768 5770 5773 5778 5779 5781 5773 5772 5770 5771 5769 5769 5767 5765 5763 5760 5758 5759 5759 5760 5761 5762 5758 5759 5763 5766 5768 5768 5766 5767 5770 5769 5770
5778 5776 5774 5754 5748 5756 5750 5757 5781 5776 5773 5770 5763 5761 5761 5762 5765 5766 5769 5770 5771 5775 5775 5765 5765 5768 5768 5769 5767 5764 5764 5763 5762 5760 5762 5761 5761 5763 5762 5761 5762 5762 5764 5765 5764 5766 5771 5769 5769